owner,sensor,date,latitude,longitude,vertical_datum,mass_concentration_of_oxygen_in_sea_water,qcFlag 
DISL,ioos:station:DISL:BSCA:1,2019-02-01T00:00:00Z,30.3288,-87.8293,1.895,10.14,1111122 
DISL,ioos:station:DISL:BSCA:1,2019-02-01T01:30:00Z,30.3288,-87.8293,1.934,10.21,1111122 
DISL,ioos:station:DISL:BSCA:1,2019-02-01T02:30:00Z,30.3288,-87.8293,1.909,10.49,1111122 
DISL,ioos:station:DISL:BSCA:1,2019-02-01T03:30:00Z,30.3288,-87.8293,1.88,9.97,1111122 
DISL,ioos:station:DISL:BSCA:1,2019-02-01T04:30:00Z,30.3288,-87.8293,1.846,9.39,1111122 
DISL,ioos:station:DISL:BSCA:1,2019-02-01T05:30:00Z,30.3288,-87.8293,1.789,10.62,1111122 
DISL,ioos:station:DISL:BSCA:1,2019-02-01T06:30:00Z,30.3288,-87.8293,1.709,10.09,1111122 
DISL,ioos:station:DISL:BSCA:1,2019-02-01T07:30:00Z,30.3288,-87.8293,1.64,10.32,1111122 
DISL,ioos:station:DISL:BSCA:1,2019-02-01T08:30:00Z,30.3288,-87.8293,1.586,10.83,1111122 
DISL,ioos:station:DISL:BSCA:1,2019-02-01T09:30:00Z,30.3288,-87.8293,1.532,10.84,1111122 
DISL,ioos:station:DISL:BSCA:1,2019-02-01T10:30:00Z,30.3288,-87.8293,1.445,10.87,1111122 
DISL,ioos:station:DISL:BSCA:1,2019-02-01T11:30:00Z,30.3288,-87.8293,1.405,10.76,1111122 
DISL,ioos:station:DISL:BSCA:1,2019-02-01T12:30:00Z,30.3288,-87.8293,1.402,10.47,1111122 
DISL,ioos:station:DISL:BSCA:1,2019-02-01T13:30:00Z,30.3288,-87.8293,1.407,10.27,1111122 
DISL,ioos:station:DISL:BSCA:1,2019-02-01T14:30:00Z,30.3288,-87.8293,1.427,9.56,1111122 
DISL,ioos:station:DISL:BSCA:1,2019-02-01T15:30:00Z,30.3288,-87.8293,1.463,9.11,1111122 
DISL,ioos:station:DISL:BSCA:1,2019-02-01T16:30:00Z,30.3288,-87.8293,1.513,10.13,1111122 
DISL,ioos:station:DISL:BSCA:1,2019-02-01T17:30:00Z,30.3288,-87.8293,1.605,9.71,1111122 
DISL,ioos:station:DISL:BSCA:1,2019-02-01T18:30:00Z,30.3288,-87.8293,1.695,9.44,1111122 
DISL,ioos:station:DISL:BSCA:1,2019-02-01T19:30:00Z,30.3288,-87.8293,1.77,9.52,1111122 
DISL,ioos:station:DISL:BSCA:1,2019-02-01T20:30:00Z,30.3288,-87.8293,1.819,9.35,1111122 
DISL,ioos:station:DISL:BSCA:1,2019-02-01T21:30:00Z,30.3288,-87.8293,1.858,8.96,1111122 
DISL,ioos:station:DISL:BSCA:1,2019-02-01T22:30:00Z,30.3288,-87.8293,1.904,10.25,1111122 
DISL,ioos:station:DISL:BSCA:1,2019-02-01T23:30:00Z,30.3288,-87.8293,1.965,10.01,1111122 
DISL,ioos:station:DISL:BSCA:1,2019-02-02T00:30:00Z,30.3288,-87.8293,2.0,8.95,1111122 
DISL,ioos:station:DISL:BSCA:1,2019-02-02T01:30:00Z,30.3288,-87.8293,2.019,10.21,1111122 
DISL,ioos:station:DISL:BSCA:1,2019-02-02T02:30:00Z,30.3288,-87.8293,2.035,10.1,1111122 
DISL,ioos:station:DISL:BSCA:1,2019-02-02T03:30:00Z,30.3288,-87.8293,2.003,9.83,1111122 
DISL,ioos:station:DISL:BSCA:1,2019-02-02T04:30:00Z,30.3288,-87.8293,1.962,9.78,1111122 
DISL,ioos:station:DISL:BSCA:1,2019-02-02T05:30:00Z,30.3288,-87.8293,1.894,7.94,1111122 
DISL,ioos:station:DISL:BSCA:1,2019-02-02T06:30:00Z,30.3288,-87.8293,1.84,6.28,1111122 
DISL,ioos:station:DISL:BSCA:1,2019-02-02T07:30:00Z,30.3288,-87.8293,1.783,5.01,1111122 
DISL,ioos:station:DISL:BSCA:1,2019-02-02T08:30:00Z,30.3288,-87.8293,1.703,6.21,1111122 
DISL,ioos:station:DISL:BSCA:1,2019-02-02T09:30:00Z,30.3288,-87.8293,1.625,3.22,1111122 
DISL,ioos:station:DISL:BSCA:1,2019-02-02T10:30:00Z,30.3288,-87.8293,1.556,1.65,1111122 
DISL,ioos:station:DISL:BSCA:1,2019-02-02T11:30:00Z,30.3288,-87.8293,1.515,0.46,1111122 
DISL,ioos:station:DISL:BSCA:1,2019-02-02T12:30:00Z,30.3288,-87.8293,1.494,4.31,1111122 
DISL,ioos:station:DISL:BSCA:1,2019-02-02T13:30:00Z,30.3288,-87.8293,1.457,0.86,1111122 
DISL,ioos:station:DISL:BSCA:1,2019-02-02T14:30:00Z,30.3288,-87.8293,1.461,3.13,1111122 
DISL,ioos:station:DISL:BSCA:1,2019-02-02T15:30:00Z,30.3288,-87.8293,1.481,2.35,1111122 
DISL,ioos:station:DISL:BSCA:1,2019-02-02T16:30:00Z,30.3288,-87.8293,1.511,3.82,1111122 
DISL,ioos:station:DISL:BSCA:1,2019-02-02T17:30:00Z,30.3288,-87.8293,1.558,0.72,1111122 
DISL,ioos:station:DISL:BSCA:1,2019-02-02T18:30:00Z,30.3288,-87.8293,1.61,5.34,1111122 
DISL,ioos:station:DISL:BSCA:1,2019-02-02T19:30:00Z,30.3288,-87.8293,1.657,2.29,1111122 
DISL,ioos:station:DISL:BSCA:1,2019-02-02T20:30:00Z,30.3288,-87.8293,1.726,4.61,1111122 
DISL,ioos:station:DISL:BSCA:1,2019-02-02T21:30:00Z,30.3288,-87.8293,1.794,6.76,1111122 
DISL,ioos:station:DISL:BSCA:1,2019-02-02T22:30:00Z,30.3288,-87.8293,1.862,6.88,1111122 
DISL,ioos:station:DISL:BSCA:1,2019-02-02T23:30:00Z,30.3288,-87.8293,1.918,6.96,1111122 
DISL,ioos:station:DISL:BSCA:1,2019-02-03T00:30:00Z,30.3288,-87.8293,1.969,6.69,1111122 
DISL,ioos:station:DISL:BSCA:1,2019-02-03T01:30:00Z,30.3288,-87.8293,2.008,6.71,1111122 
DISL,ioos:station:DISL:BSCA:1,2019-02-03T02:30:00Z,30.3288,-87.8293,2.036,7.01,1111122 
DISL,ioos:station:DISL:BSCA:1,2019-02-03T03:30:00Z,30.3288,-87.8293,2.027,5.95,1111122 
DISL,ioos:station:DISL:BSCA:1,2019-02-03T04:30:00Z,30.3288,-87.8293,1.999,6.49,1111122 
DISL,ioos:station:DISL:BSCA:1,2019-02-03T05:30:00Z,30.3288,-87.8293,1.946,7.94,1111122 
DISL,ioos:station:DISL:BSCA:1,2019-02-03T06:30:00Z,30.3288,-87.8293,1.885,8.56,1111122 
DISL,ioos:station:DISL:BSCA:1,2019-02-03T07:30:00Z,30.3288,-87.8293,1.812,7.86,1111122 
DISL,ioos:station:DISL:BSCA:1,2019-02-03T08:30:00Z,30.3288,-87.8293,1.737,7.61,1111122 
DISL,ioos:station:DISL:BSCA:1,2019-02-03T09:30:00Z,30.3288,-87.8293,1.667,8.03,1111122 
DISL,ioos:station:DISL:BSCA:1,2019-02-03T10:30:00Z,30.3288,-87.8293,1.606,8.65,1111122 
DISL,ioos:station:DISL:BSCA:1,2019-02-03T11:30:00Z,30.3288,-87.8293,1.55,6.26,1111122 
DISL,ioos:station:DISL:BSCA:1,2019-02-03T12:30:00Z,30.3288,-87.8293,1.51,8.54,1111122 
DISL,ioos:station:DISL:BSCA:1,2019-02-03T13:30:00Z,30.3288,-87.8293,1.492,8.57,1111122 
DISL,ioos:station:DISL:BSCA:1,2019-02-03T14:30:00Z,30.3288,-87.8293,1.481,9.65,1111122 
DISL,ioos:station:DISL:BSCA:1,2019-02-03T15:30:00Z,30.3288,-87.8293,1.487,9.95,1111122 
DISL,ioos:station:DISL:BSCA:1,2019-02-03T16:30:00Z,30.3288,-87.8293,1.514,8.32,1111122 
DISL,ioos:station:DISL:BSCA:1,2019-02-03T17:30:00Z,30.3288,-87.8293,1.558,1.65,1111122 
DISL,ioos:station:DISL:BSCA:1,2019-02-03T18:30:00Z,30.3288,-87.8293,1.609,8.19,1111122 
DISL,ioos:station:DISL:BSCA:1,2019-02-03T19:30:00Z,30.3288,-87.8293,1.645,9.09,1111122 
DISL,ioos:station:DISL:BSCA:1,2019-02-03T20:30:00Z,30.3288,-87.8293,1.689,9.76,1111122 
DISL,ioos:station:DISL:BSCA:1,2019-02-03T21:30:00Z,30.3288,-87.8293,1.74,10.16,1111122 
DISL,ioos:station:DISL:BSCA:1,2019-02-03T22:30:00Z,30.3288,-87.8293,1.793,10.49,1111122 
DISL,ioos:station:DISL:BSCA:1,2019-02-03T23:30:00Z,30.3288,-87.8293,1.835,9.36,1111122 
DISL,ioos:station:DISL:BSCA:1,2019-02-04T00:30:00Z,30.3288,-87.8293,1.898,9.98,1111122 
DISL,ioos:station:DISL:BSCA:1,2019-02-04T01:30:00Z,30.3288,-87.8293,1.959,9.66,1111122 
DISL,ioos:station:DISL:BSCA:1,2019-02-04T02:30:00Z,30.3288,-87.8293,2.01,9.82,1111122 
DISL,ioos:station:DISL:BSCA:1,2019-02-04T03:30:00Z,30.3288,-87.8293,2.022,9.17,1111122 
DISL,ioos:station:DISL:BSCA:1,2019-02-04T04:30:00Z,30.3288,-87.8293,2.003,9.05,1111122 
DISL,ioos:station:DISL:BSCA:1,2019-02-04T05:30:00Z,30.3288,-87.8293,1.971,8.95,1111122 
DISL,ioos:station:DISL:BSCA:1,2019-02-04T06:30:00Z,30.3288,-87.8293,1.921,9.29,1111122 
DISL,ioos:station:DISL:BSCA:1,2019-02-04T07:30:00Z,30.3288,-87.8293,1.847,8.97,1111122 
DISL,ioos:station:DISL:BSCA:1,2019-02-04T08:30:00Z,30.3288,-87.8293,1.778,8.07,1111122 
DISL,ioos:station:DISL:BSCA:1,2019-02-04T09:30:00Z,30.3288,-87.8293,1.71,8.51,1111122 
DISL,ioos:station:DISL:BSCA:1,2019-02-04T10:30:00Z,30.3288,-87.8293,1.637,8.23,1111122 
DISL,ioos:station:DISL:BSCA:1,2019-02-04T11:30:00Z,30.3288,-87.8293,1.575,7.99,1111122 
DISL,ioos:station:DISL:BSCA:1,2019-02-04T12:30:00Z,30.3288,-87.8293,1.535,7.83,1111122 
DISL,ioos:station:DISL:BSCA:1,2019-02-04T13:30:00Z,30.3288,-87.8293,1.512,8.01,1111122 
DISL,ioos:station:DISL:BSCA:1,2019-02-04T14:30:00Z,30.3288,-87.8293,1.505,7.81,1111122 
DISL,ioos:station:DISL:BSCA:1,2019-02-04T15:30:00Z,30.3288,-87.8293,1.509,10.63,1111122 
DISL,ioos:station:DISL:BSCA:1,2019-02-04T16:30:00Z,30.3288,-87.8293,1.524,10.67,1111122 
DISL,ioos:station:DISL:BSCA:1,2019-02-04T17:30:00Z,30.3288,-87.8293,1.54,6.16,1111122 
DISL,ioos:station:DISL:BSCA:1,2019-02-04T18:30:00Z,30.3288,-87.8293,1.591,7.72,1111122 
DISL,ioos:station:DISL:BSCA:1,2019-02-04T19:30:00Z,30.3288,-87.8293,1.63,7.76,1111122 
DISL,ioos:station:DISL:BSCA:1,2019-02-04T20:30:00Z,30.3288,-87.8293,1.674,11.15,1111122 
DISL,ioos:station:DISL:BSCA:1,2019-02-04T21:30:00Z,30.3288,-87.8293,1.729,9.28,1111122 
DISL,ioos:station:DISL:BSCA:1,2019-02-04T22:30:00Z,30.3288,-87.8293,1.778,8.56,1111122 
DISL,ioos:station:DISL:BSCA:1,2019-02-04T23:30:00Z,30.3288,-87.8293,1.811,9.36,1111122 
DISL,ioos:station:DISL:BSCA:1,2019-02-05T00:30:00Z,30.3288,-87.8293,1.885,10.65,1111122 
DISL,ioos:station:DISL:BSCA:1,2019-02-05T01:30:00Z,30.3288,-87.8293,1.901,9.06,1111122 
DISL,ioos:station:DISL:BSCA:1,2019-02-05T02:30:00Z,30.3288,-87.8293,1.974,9.77,1111122 
DISL,ioos:station:DISL:BSCA:1,2019-02-05T03:30:00Z,30.3288,-87.8293,2.007,5.7,1111122 
DISL,ioos:station:DISL:BSCA:1,2019-02-05T04:30:00Z,30.3288,-87.8293,1.991,1.72,1111122 
DISL,ioos:station:DISL:BSCA:1,2019-02-05T05:30:00Z,30.3288,-87.8293,1.953,3.32,1111122 
DISL,ioos:station:DISL:BSCA:1,2019-02-05T06:30:00Z,30.3288,-87.8293,1.921,9.27,1111122 
DISL,ioos:station:DISL:BSCA:1,2019-02-05T07:30:00Z,30.3288,-87.8293,1.866,1.8,1111122 
DISL,ioos:station:DISL:BSCA:1,2019-02-05T08:30:00Z,30.3288,-87.8293,1.804,1.36,1111122 
DISL,ioos:station:DISL:BSCA:1,2019-02-05T09:30:00Z,30.3288,-87.8293,1.729,5.06,1111122 
DISL,ioos:station:DISL:BSCA:1,2019-02-05T10:30:00Z,30.3288,-87.8293,1.653,7.27,1111122 
DISL,ioos:station:DISL:BSCA:1,2019-02-05T11:30:00Z,30.3288,-87.8293,1.59,6.96,1111122 
DISL,ioos:station:DISL:BSCA:1,2019-02-05T12:30:00Z,30.3288,-87.8293,1.548,7.11,1111122 
DISL,ioos:station:DISL:BSCA:1,2019-02-05T13:30:00Z,30.3288,-87.8293,1.516,4.02,1111122 
DISL,ioos:station:DISL:BSCA:1,2019-02-05T14:30:00Z,30.3288,-87.8293,1.495,2.89,1111122 
DISL,ioos:station:DISL:BSCA:1,2019-02-05T15:30:00Z,30.3288,-87.8293,1.508,3.64,1111122 
DISL,ioos:station:DISL:BSCA:1,2019-02-05T16:30:00Z,30.3288,-87.8293,1.523,3.32,1111122 
DISL,ioos:station:DISL:BSCA:1,2019-02-05T17:30:00Z,30.3288,-87.8293,1.544,5.68,1111122 
DISL,ioos:station:DISL:BSCA:1,2019-02-05T18:30:00Z,30.3288,-87.8293,1.582,5.39,1111122 
DISL,ioos:station:DISL:BSCA:1,2019-02-05T19:30:00Z,30.3288,-87.8293,1.636,6.28,1111122 
DISL,ioos:station:DISL:BSCA:1,2019-02-05T20:30:00Z,30.3288,-87.8293,1.691,9.3,1111122 
DISL,ioos:station:DISL:BSCA:1,2019-02-05T21:30:00Z,30.3288,-87.8293,1.719,7.75,1111122 
DISL,ioos:station:DISL:BSCA:1,2019-02-05T22:30:00Z,30.3288,-87.8293,1.761,10.02,1111122 
DISL,ioos:station:DISL:BSCA:1,2019-02-05T23:30:00Z,30.3288,-87.8293,1.796,7.49,1111122 
DISL,ioos:station:DISL:BSCA:1,2019-02-06T00:30:00Z,30.3288,-87.8293,1.831,7.13,1111122 
DISL,ioos:station:DISL:BSCA:1,2019-02-06T01:30:00Z,30.3288,-87.8293,1.874,9.35,1111122 
DISL,ioos:station:DISL:BSCA:1,2019-02-06T02:30:00Z,30.3288,-87.8293,1.908,8.09,1111122 
DISL,ioos:station:DISL:BSCA:1,2019-02-06T03:30:00Z,30.3288,-87.8293,1.921,7.36,1111122 
DISL,ioos:station:DISL:BSCA:1,2019-02-06T04:30:00Z,30.3288,-87.8293,1.946,7.7,1111122 
DISL,ioos:station:DISL:BSCA:1,2019-02-06T05:30:00Z,30.3288,-87.8293,1.949,7.04,1111122 
DISL,ioos:station:DISL:BSCA:1,2019-02-06T06:30:00Z,30.3288,-87.8293,1.916,7.93,1111122 
DISL,ioos:station:DISL:BSCA:1,2019-02-06T07:30:00Z,30.3288,-87.8293,1.867,8.48,1111122 
DISL,ioos:station:DISL:BSCA:1,2019-02-06T08:30:00Z,30.3288,-87.8293,1.817,6.58,1111122 
DISL,ioos:station:DISL:BSCA:1,2019-02-06T09:30:00Z,30.3288,-87.8293,1.755,10.23,1111122 
DISL,ioos:station:DISL:BSCA:1,2019-02-06T10:30:00Z,30.3288,-87.8293,1.681,4.95,1111122 
DISL,ioos:station:DISL:BSCA:1,2019-02-06T11:30:00Z,30.3288,-87.8293,1.61,3.43,1111122 
DISL,ioos:station:DISL:BSCA:1,2019-02-06T12:30:00Z,30.3288,-87.8293,1.554,6.91,1111122 
DISL,ioos:station:DISL:BSCA:1,2019-02-06T13:30:00Z,30.3288,-87.8293,1.527,3.2,1111122 
DISL,ioos:station:DISL:BSCA:1,2019-02-06T14:30:00Z,30.3288,-87.8293,1.507,4.11,1111122 
DISL,ioos:station:DISL:BSCA:1,2019-02-06T15:30:00Z,30.3288,-87.8293,1.496,7.67,1111122 
DISL,ioos:station:DISL:BSCA:1,2019-02-06T16:30:00Z,30.3288,-87.8293,1.505,10.8,1111122 
DISL,ioos:station:DISL:BSCA:1,2019-02-06T17:30:00Z,30.3288,-87.8293,1.539,11.25,1111122 
DISL,ioos:station:DISL:BSCA:1,2019-02-06T18:30:00Z,30.3288,-87.8293,1.571,11.95,1111122 
DISL,ioos:station:DISL:BSCA:1,2019-02-06T19:30:00Z,30.3288,-87.8293,1.615,12.09,1111122 
DISL,ioos:station:DISL:BSCA:1,2019-02-06T20:30:00Z,30.3288,-87.8293,1.658,11.94,1111122 
DISL,ioos:station:DISL:BSCA:1,2019-02-06T22:30:00Z,30.3288,-87.8293,1.702,11.7,1111122 
DISL,ioos:station:DISL:BSCA:1,2019-02-06T23:30:00Z,30.3288,-87.8293,1.708,11.51,1111122 
DISL,ioos:station:DISL:BSCA:1,2019-02-07T00:30:00Z,30.3288,-87.8293,1.729,13.96,1111122 
DISL,ioos:station:DISL:BSCA:1,2019-02-07T01:30:00Z,30.3288,-87.8293,1.771,8.6,1111122 
DISL,ioos:station:DISL:BSCA:1,2019-02-07T02:30:00Z,30.3288,-87.8293,1.822,12.45,1111122 
DISL,ioos:station:DISL:BSCA:1,2019-02-07T03:30:00Z,30.3288,-87.8293,1.863,12.06,1111122 
DISL,ioos:station:DISL:BSCA:1,2019-02-07T04:30:00Z,30.3288,-87.8293,1.913,6.46,1111122 
DISL,ioos:station:DISL:BSCA:1,2019-02-07T05:30:00Z,30.3288,-87.8293,1.92,2.12,1111122 
DISL,ioos:station:DISL:BSCA:1,2019-02-07T06:30:00Z,30.3288,-87.8293,1.911,6.55,1111122 
DISL,ioos:station:DISL:BSCA:1,2019-02-07T07:30:00Z,30.3288,-87.8293,1.874,10.2,1111122 
DISL,ioos:station:DISL:BSCA:1,2019-02-07T08:30:00Z,30.3288,-87.8293,1.825,6.22,1111122 
DISL,ioos:station:DISL:BSCA:1,2019-02-07T09:30:00Z,30.3288,-87.8293,1.753,4.82,1111122 
DISL,ioos:station:DISL:BSCA:1,2019-02-07T10:30:00Z,30.3288,-87.8293,1.692,11.63,1111122 
DISL,ioos:station:DISL:BSCA:1,2019-02-07T11:30:00Z,30.3288,-87.8293,1.625,10.01,1111122 
DISL,ioos:station:DISL:BSCA:1,2019-02-07T12:30:00Z,30.3288,-87.8293,1.565,10.36,1111122 
DISL,ioos:station:DISL:BSCA:1,2019-02-07T13:30:00Z,30.3288,-87.8293,1.52,11.51,1111122 
DISL,ioos:station:DISL:BSCA:1,2019-02-07T14:30:00Z,30.3288,-87.8293,1.492,11.67,1111122 
DISL,ioos:station:DISL:BSCA:1,2019-02-07T15:30:00Z,30.3288,-87.8293,1.497,12.64,1111122 
DISL,ioos:station:DISL:BSCA:1,2019-02-07T16:30:00Z,30.3288,-87.8293,1.511,12.9,1111122 
DISL,ioos:station:DISL:BSCA:1,2019-02-07T17:30:00Z,30.3288,-87.8293,1.543,13.07,1111122 
DISL,ioos:station:DISL:BSCA:1,2019-02-07T18:30:00Z,30.3288,-87.8293,1.572,13.52,1111122 
DISL,ioos:station:DISL:BSCA:1,2019-02-07T19:30:00Z,30.3288,-87.8293,1.607,13.45,1111122 
DISL,ioos:station:DISL:BSCA:1,2019-02-07T20:30:00Z,30.3288,-87.8293,1.615,13.54,1111122 
DISL,ioos:station:DISL:BSCA:1,2019-02-07T21:30:00Z,30.3288,-87.8293,1.632,13.71,1111122 
DISL,ioos:station:DISL:BSCA:1,2019-02-07T22:30:00Z,30.3288,-87.8293,1.658,13.91,1111122 
DISL,ioos:station:DISL:BSCA:1,2019-02-07T23:30:00Z,30.3288,-87.8293,1.681,12.47,1111122 
DISL,ioos:station:DISL:BSCA:1,2019-02-08T00:30:00Z,30.3288,-87.8293,1.702,11.86,1111122 
DISL,ioos:station:DISL:BSCA:1,2019-02-08T01:30:00Z,30.3288,-87.8293,1.733,10.69,1111122 
DISL,ioos:station:DISL:BSCA:1,2019-02-08T02:30:00Z,30.3288,-87.8293,1.781,13.01,1111122 
DISL,ioos:station:DISL:BSCA:1,2019-02-08T03:30:00Z,30.3288,-87.8293,1.828,13.28,1111122 
DISL,ioos:station:DISL:BSCA:1,2019-02-08T04:30:00Z,30.3288,-87.8293,1.883,11.83,1111122 
DISL,ioos:station:DISL:BSCA:1,2019-02-08T05:30:00Z,30.3288,-87.8293,1.925,11.68,1111122 
DISL,ioos:station:DISL:BSCA:1,2019-02-08T06:30:00Z,30.3288,-87.8293,1.934,10.82,1111122 
DISL,ioos:station:DISL:BSCA:1,2019-02-08T07:30:00Z,30.3288,-87.8293,1.911,11.58,1111122 
DISL,ioos:station:DISL:BSCA:1,2019-02-08T08:30:00Z,30.3288,-87.8293,1.917,11.02,1111122 
DISL,ioos:station:DISL:BSCA:1,2019-02-08T09:30:00Z,30.3288,-87.8293,1.877,7.2,1111122 
DISL,ioos:station:DISL:BSCA:1,2019-02-08T10:30:00Z,30.3288,-87.8293,1.695,9.26,1111122 
DISL,ioos:station:DISL:BSCA:1,2019-02-08T11:30:00Z,30.3288,-87.8293,1.561,10.53,1111122 
DISL,ioos:station:DISL:BSCA:1,2019-02-08T12:30:00Z,30.3288,-87.8293,1.544,8.51,1111122 
DISL,ioos:station:DISL:BSCA:1,2019-02-08T13:30:00Z,30.3288,-87.8293,1.521,1.71,1111122 
DISL,ioos:station:DISL:BSCA:1,2019-02-08T14:30:00Z,30.3288,-87.8293,1.483,3.09,1111122 
DISL,ioos:station:DISL:BSCA:1,2019-02-08T15:30:00Z,30.3288,-87.8293,1.428,8.59,1111122 
DISL,ioos:station:DISL:BSCA:1,2019-02-08T16:30:00Z,30.3288,-87.8293,1.372,9.59,1111122 
DISL,ioos:station:DISL:BSCA:1,2019-02-08T17:30:00Z,30.3288,-87.8293,1.359,9.72,1111122 
DISL,ioos:station:DISL:BSCA:1,2019-02-08T18:30:00Z,30.3288,-87.8293,1.335,9.51,1111122 
DISL,ioos:station:DISL:BSCA:1,2019-02-08T19:30:00Z,30.3288,-87.8293,1.328,9.94,1111122 
DISL,ioos:station:DISL:BSCA:1,2019-02-08T20:30:00Z,30.3288,-87.8293,1.342,10.39,1111122 
DISL,ioos:station:DISL:BSCA:1,2019-02-08T21:30:00Z,30.3288,-87.8293,1.373,10.34,1111122 
DISL,ioos:station:DISL:BSCA:1,2019-02-08T22:30:00Z,30.3288,-87.8293,1.35,10.15,1111122 
DISL,ioos:station:DISL:BSCA:1,2019-02-08T23:30:00Z,30.3288,-87.8293,1.371,9.91,1111122 
DISL,ioos:station:DISL:BSCA:1,2019-02-09T00:30:00Z,30.3288,-87.8293,1.47,9.66,1111122 
DISL,ioos:station:DISL:BSCA:1,2019-02-09T01:30:00Z,30.3288,-87.8293,1.52,9.24,1111122 
DISL,ioos:station:DISL:BSCA:1,2019-02-09T02:30:00Z,30.3288,-87.8293,1.487,10.22,1111122 
DISL,ioos:station:DISL:BSCA:1,2019-02-09T03:30:00Z,30.3288,-87.8293,1.442,9.95,1111122 
DISL,ioos:station:DISL:BSCA:1,2019-02-09T04:30:00Z,30.3288,-87.8293,1.411,10.25,1111122 
DISL,ioos:station:DISL:BSCA:1,2019-02-09T05:30:00Z,30.3288,-87.8293,1.436,9.91,1111122 
DISL,ioos:station:DISL:BSCA:1,2019-02-09T06:30:00Z,30.3288,-87.8293,1.406,9.93,1111122 
DISL,ioos:station:DISL:BSCA:1,2019-02-09T07:30:00Z,30.3288,-87.8293,1.422,9.89,1111122 
DISL,ioos:station:DISL:BSCA:1,2019-02-09T08:30:00Z,30.3288,-87.8293,1.419,9.72,1111122 
DISL,ioos:station:DISL:BSCA:1,2019-02-09T09:30:00Z,30.3288,-87.8293,1.405,9.85,1111122 
DISL,ioos:station:DISL:BSCA:1,2019-02-09T10:30:00Z,30.3288,-87.8293,1.408,9.53,1111122 
DISL,ioos:station:DISL:BSCA:1,2019-02-09T11:30:00Z,30.3288,-87.8293,1.394,9.74,1111122 
DISL,ioos:station:DISL:BSCA:1,2019-02-09T12:30:00Z,30.3288,-87.8293,1.357,9.45,1111122 
DISL,ioos:station:DISL:BSCA:1,2019-02-09T13:30:00Z,30.3288,-87.8293,1.342,8.88,1111122 
DISL,ioos:station:DISL:BSCA:1,2019-02-09T14:30:00Z,30.3288,-87.8293,1.377,9.13,1111122 
DISL,ioos:station:DISL:BSCA:1,2019-02-09T15:30:00Z,30.3288,-87.8293,1.421,9.63,1111122 
DISL,ioos:station:DISL:BSCA:1,2019-02-09T16:30:00Z,30.3288,-87.8293,1.409,9.74,1111122 
DISL,ioos:station:DISL:BSCA:1,2019-02-09T17:30:00Z,30.3288,-87.8293,1.387,9.46,1111122 
DISL,ioos:station:DISL:BSCA:1,2019-02-09T18:30:00Z,30.3288,-87.8293,1.388,10.02,1111122 
DISL,ioos:station:DISL:BSCA:1,2019-02-09T19:30:00Z,30.3288,-87.8293,1.442,9.21,1111122 
DISL,ioos:station:DISL:BSCA:1,2019-02-09T20:30:00Z,30.3288,-87.8293,1.513,8.82,1111122 
DISL,ioos:station:DISL:BSCA:1,2019-02-09T21:30:00Z,30.3288,-87.8293,1.558,9.78,1111122 
DISL,ioos:station:DISL:BSCA:1,2019-02-09T22:30:00Z,30.3288,-87.8293,1.571,4.96,1111122 
DISL,ioos:station:DISL:BSCA:1,2019-02-09T23:30:00Z,30.3288,-87.8293,1.557,6.72,1111122 
DISL,ioos:station:DISL:BSCA:1,2019-02-10T00:30:00Z,30.3288,-87.8293,1.572,9.6,1111122 
DISL,ioos:station:DISL:BSCA:1,2019-02-10T01:30:00Z,30.3288,-87.8293,1.588,9.32,1111122 
DISL,ioos:station:DISL:BSCA:1,2019-02-10T02:30:00Z,30.3288,-87.8293,1.571,8.78,1111122 
DISL,ioos:station:DISL:BSCA:1,2019-02-10T03:30:00Z,30.3288,-87.8293,1.583,9.23,1111122 
DISL,ioos:station:DISL:BSCA:1,2019-02-10T04:30:00Z,30.3288,-87.8293,1.566,10.18,1111122 
DISL,ioos:station:DISL:BSCA:1,2019-02-10T05:30:00Z,30.3288,-87.8293,1.566,10.42,1111122 
DISL,ioos:station:DISL:BSCA:1,2019-02-10T06:30:00Z,30.3288,-87.8293,1.515,9.34,1111122 
DISL,ioos:station:DISL:BSCA:1,2019-02-10T07:30:00Z,30.3288,-87.8293,1.53,9.84,1111122 
DISL,ioos:station:DISL:BSCA:1,2019-02-10T08:30:00Z,30.3288,-87.8293,1.584,9.57,1111122 
DISL,ioos:station:DISL:BSCA:1,2019-02-10T09:30:00Z,30.3288,-87.8293,1.605,9.25,1111122 
DISL,ioos:station:DISL:BSCA:1,2019-02-10T10:30:00Z,30.3288,-87.8293,1.598,9.14,1111122 
DISL,ioos:station:DISL:BSCA:1,2019-02-10T11:30:00Z,30.3288,-87.8293,1.572,9.55,1111122 
DISL,ioos:station:DISL:BSCA:1,2019-02-10T12:30:00Z,30.3288,-87.8293,1.537,9.66,1111122 
DISL,ioos:station:DISL:BSCA:1,2019-02-10T13:30:00Z,30.3288,-87.8293,1.531,9.45,1111122 
DISL,ioos:station:DISL:BSCA:1,2019-02-10T14:30:00Z,30.3288,-87.8293,1.51,10.41,1111122 
DISL,ioos:station:DISL:BSCA:1,2019-02-10T15:30:00Z,30.3288,-87.8293,1.539,9.72,1111122 
DISL,ioos:station:DISL:BSCA:1,2019-02-10T16:30:00Z,30.3288,-87.8293,1.576,9.98,1111122 
DISL,ioos:station:DISL:BSCA:1,2019-02-10T17:30:00Z,30.3288,-87.8293,1.587,9.88,1111122 
DISL,ioos:station:DISL:BSCA:1,2019-02-10T18:30:00Z,30.3288,-87.8293,1.615,9.64,1111122 
DISL,ioos:station:DISL:BSCA:1,2019-02-10T19:30:00Z,30.3288,-87.8293,1.651,9.48,1111122 
DISL,ioos:station:DISL:BSCA:1,2019-02-10T20:30:00Z,30.3288,-87.8293,1.678,8.34,1111122 
DISL,ioos:station:DISL:BSCA:1,2019-02-10T21:30:00Z,30.3288,-87.8293,1.686,8.48,1111122 
DISL,ioos:station:DISL:BSCA:1,2019-02-10T22:30:00Z,30.3288,-87.8293,1.687,8.23,1111122 
DISL,ioos:station:DISL:BSCA:1,2019-02-10T23:30:00Z,30.3288,-87.8293,1.698,8.05,1111122 
DISL,ioos:station:DISL:BSCA:1,2019-02-11T00:30:00Z,30.3288,-87.8293,1.697,7.06,1111122 
DISL,ioos:station:DISL:BSCA:1,2019-02-11T01:30:00Z,30.3288,-87.8293,1.668,10.15,1111122 
DISL,ioos:station:DISL:BSCA:1,2019-02-11T02:30:00Z,30.3288,-87.8293,1.674,9.01,1111122 
DISL,ioos:station:DISL:BSCA:1,2019-02-11T03:30:00Z,30.3288,-87.8293,1.662,8.83,1111122 
DISL,ioos:station:DISL:BSCA:1,2019-02-11T04:30:00Z,30.3288,-87.8293,1.669,8.83,1111122 
DISL,ioos:station:DISL:BSCA:1,2019-02-11T05:30:00Z,30.3288,-87.8293,1.689,9.15,1111122 
DISL,ioos:station:DISL:BSCA:1,2019-02-11T06:30:00Z,30.3288,-87.8293,1.684,7.38,1111122 
DISL,ioos:station:DISL:BSCA:1,2019-02-11T07:30:00Z,30.3288,-87.8293,1.68,7.62,1111122 
DISL,ioos:station:DISL:BSCA:1,2019-02-11T08:30:00Z,30.3288,-87.8293,1.665,7.5,1111122 
DISL,ioos:station:DISL:BSCA:1,2019-02-11T09:30:00Z,30.3288,-87.8293,1.653,9.4,1111122 
DISL,ioos:station:DISL:BSCA:1,2019-02-11T10:30:00Z,30.3288,-87.8293,1.659,8.34,1111122 
DISL,ioos:station:DISL:BSCA:1,2019-02-11T11:30:00Z,30.3288,-87.8293,1.622,3.92,1111122 
DISL,ioos:station:DISL:BSCA:1,2019-02-11T12:30:00Z,30.3288,-87.8293,1.617,4.93,1111122 
DISL,ioos:station:DISL:BSCA:1,2019-02-11T13:30:00Z,30.3288,-87.8293,1.619,4.37,1111122 
DISL,ioos:station:DISL:BSCA:1,2019-02-11T14:30:00Z,30.3288,-87.8293,1.628,3.05,1111122 
DISL,ioos:station:DISL:BSCA:1,2019-02-11T15:30:00Z,30.3288,-87.8293,1.638,2.75,1111122 
DISL,ioos:station:DISL:BSCA:1,2019-02-11T16:30:00Z,30.3288,-87.8293,1.67,2.65,1111122 
DISL,ioos:station:DISL:BSCA:1,2019-02-11T17:30:00Z,30.3288,-87.8293,1.678,6.95,1111122 
DISL,ioos:station:DISL:BSCA:1,2019-02-11T18:30:00Z,30.3288,-87.8293,1.696,9.26,1111122 
DISL,ioos:station:DISL:BSCA:1,2019-02-11T19:30:00Z,30.3288,-87.8293,1.735,7.21,1111122 
DISL,ioos:station:DISL:BSCA:1,2019-02-11T20:30:00Z,30.3288,-87.8293,1.795,10.48,1111122 
DISL,ioos:station:DISL:BSCA:1,2019-02-11T21:30:00Z,30.3288,-87.8293,1.826,5.27,1111122 
DISL,ioos:station:DISL:BSCA:1,2019-02-11T22:30:00Z,30.3288,-87.8293,1.85,8.59,1111122 
DISL,ioos:station:DISL:BSCA:1,2019-02-11T23:30:00Z,30.3288,-87.8293,1.826,10.7,1111122 
DISL,ioos:station:DISL:BSCA:1,2019-02-12T00:30:00Z,30.3288,-87.8293,1.776,11.22,1111122 
DISL,ioos:station:DISL:BSCA:1,2019-02-12T01:30:00Z,30.3288,-87.8293,1.747,9.82,1111122 
DISL,ioos:station:DISL:BSCA:1,2019-02-12T02:30:00Z,30.3288,-87.8293,1.696,11.46,1111122 
DISL,ioos:station:DISL:BSCA:1,2019-02-12T03:30:00Z,30.3288,-87.8293,1.655,11.3,1111122 
DISL,ioos:station:DISL:BSCA:1,2019-02-12T04:30:00Z,30.3288,-87.8293,1.654,9.81,1111122 
DISL,ioos:station:DISL:BSCA:1,2019-02-12T05:30:00Z,30.3288,-87.8293,1.668,10.78,1111122 
DISL,ioos:station:DISL:BSCA:1,2019-02-12T06:30:00Z,30.3288,-87.8293,1.661,11.18,1111122 
DISL,ioos:station:DISL:BSCA:1,2019-02-12T07:30:00Z,30.3288,-87.8293,1.65,11.12,1111122 